,,Stat5,,Stat1,,Stat2,,Stat3,,Stat4,,Wind1,,Wind1,
time,status,PA1M_AVG,status,PR1M_SUM,status,RH1M_AVG,status,SR1M_AVG,status,TA1M_AVG,status,W1dAve1m,status,W1sAve1m,
2003-06-03, 00:00:00,VALID,917.039,VALID,0,VALID,95.0613,VALID,0.0339617,VALID,19.8346,VALID,90,VALID,0.422852,
2003-06-03, 00:01:00,VALID,917.023,VALID,0,VALID,94.9164,VALID,0,VALID,19.773,VALID,80,VALID,0.514063,
2003-06-03, 00:02:00,VALID,917.012,VALID,0,VALID,95.2775,VALID,0.0679233,VALID,19.7251,VALID,80,VALID,0.469806,
2003-06-03, 00:03:00,VALID,917.011,VALID,0,VALID,95.8243,VALID,0.0169808,VALID,19.7151,VALID,87,VALID,0.342272,
2003-06-03, 00:04:00,VALID,917.003,VALID,0,VALID,96.5224,VALID,0.0339617,VALID,19.7377,VALID,128,VALID,0.530649,
2003-06-03, 00:05:00,VALID,916.997,VALID,0,VALID,96.6496,VALID,0.0679233,VALID,19.7795,VALID,128,VALID,0.41653,
2003-06-03, 00:06:00,VALID,916.997,VALID,0,VALID,96.6801,VALID,0.0339617,VALID,19.8023,VALID,134,VALID,0.719131,
2003-06-03, 00:07:00,VALID,916.989,VALID,0,VALID,96.5466,VALID,0.0509425,VALID,19.8247,VALID,144,VALID,0.782072,
2003-06-03, 00:08:00,VALID,916.996,VALID,0,VALID,96.5199,VALID,0.0169808,VALID,19.8542,VALID,143,VALID,0.815972,
2003-06-03, 00:09:00,VALID,916.979,VALID,0,VALID,96.2859,VALID,0,VALID,19.8768,VALID,132,VALID,0.69401,
2003-06-03, 00:10:00,VALID,916.975,VALID,0,VALID,95.7238,VALID,0.0509425,VALID,19.8701,VALID,131,VALID,0.521115,
2003-06-03, 00:11:00,VALID,916.984,VALID,0,VALID,95.6132,VALID,0.0509425,VALID,19.8408,VALID,139,VALID,0.509881,
2003-06-03, 00:12:00,VALID,916.983,VALID,0,VALID,95.5395,VALID,0.0679233,VALID,19.8184,VALID,139,VALID,0.793269,
2003-06-03, 00:13:00,VALID,916.969,VALID,0,VALID,95.3398,VALID,0.0509425,VALID,19.7824,VALID,142,VALID,0.802951,
2003-06-03, 00:14:00,VALID,916.961,VALID,0,VALID,95.659,VALID,0.0849042,VALID,19.7829,VALID,128,VALID,0.579564,
2003-06-03, 00:15:00,VALID,916.948,VALID,0,VALID,95.5026,VALID,0.0849042,VALID,19.8021,VALID,120,VALID,0.602385,
2003-06-03, 00:16:00,VALID,916.939,VALID,0,VALID,95.2928,VALID,0.0339617,VALID,19.7956,VALID,119,VALID,0.428735,
2003-06-03, 00:17:00,VALID,916.933,VALID,0,VALID,95.5395,VALID,0.0339617,VALID,19.8217,VALID,119,VALID,0.418791,
2003-06-03, 00:18:00,VALID,916.92,VALID,0,VALID,95.6081,VALID,0.0509425,VALID,19.8405,VALID,119,VALID,0.311883,
2003-06-03, 00:19:00,VALID,916.921,VALID,0,VALID,95.5064,VALID,0.0849042,VALID,19.8962,VALID,119,VALID,0.229464,
2003-06-03, 00:20:00,VALID,916.9,VALID,0,VALID,95.2483,VALID,0.0169808,VALID,19.9185,VALID,119,VALID,0.252878,
2003-06-03, 00:21:00,VALID,916.891,VALID,0,VALID,95.1249,VALID,0.0509425,VALID,19.9185,VALID,119,VALID,0.261607,
2003-06-03, 00:22:00,VALID,916.873,VALID,0,VALID,95.1364,VALID,0.0509425,VALID,19.922,VALID,119,VALID,0.186357,
2003-06-03, 00:23:00,VALID,916.862,VALID,0,VALID,95.0613,VALID,0.0339617,VALID,19.9384,VALID,119,VALID,0,
2003-06-03, 00:24:00,VALID,916.844,VALID,0,VALID,94.7536,VALID,0.0169808,VALID,19.9086,VALID,119,VALID,0,
2003-06-03, 00:25:00,VALID,916.825,VALID,0,VALID,94.6913,VALID,0.0509425,VALID,19.8838,VALID,119,VALID,0.0785362,
2003-06-03, 00:26:00,VALID,916.818,VALID,0,VALID,94.9011,VALID,0.0339617,VALID,19.8316,VALID,119,VALID,0.252539,
2003-06-03, 00:27:00,VALID,916.817,VALID,0,VALID,94.1572,VALID,0.0169808,VALID,19.7608,VALID,98,VALID,0.594161,
2003-06-03, 00:28:00,VALID,916.813,VALID,0,VALID,94.0949,VALID,0.0679233,VALID,19.6089,VALID,88,VALID,0.671453,
2003-06-03, 00:29:00,VALID,916.806,VALID,0,VALID,94.8846,VALID,0.0509425,VALID,19.5383,VALID,88,VALID,0.663851,
2003-06-03, 00:30:00,VALID,916.81,VALID,0,VALID,95.308,VALID,0.0339617,VALID,19.483,VALID,88,VALID,0.437066,
2003-06-03, 00:31:00,VALID,916.809,VALID,0,VALID,95.5229,VALID,0.0169808,VALID,19.4283,VALID,96,VALID,0.289509,
2003-06-03, 00:32:00,VALID,916.797,VALID,0,VALID,96.2007,VALID,0,VALID,19.448,VALID,151,VALID,0.634909,
2003-06-03, 00:33:00,VALID,916.795,VALID,0,VALID,96.2935,VALID,0,VALID,19.4864,VALID,127,VALID,0.399071,
2003-06-03, 00:34:00,VALID,916.793,VALID,0,VALID,96.0214,VALID,0.0339617,VALID,19.512,VALID,139,VALID,0.648849,
2003-06-03, 00:35:00,VALID,916.783,VALID,0,VALID,95.8001,VALID,0.0169808,VALID,19.5023,VALID,167,VALID,0.469383,
2003-06-03, 00:36:00,VALID,916.771,VALID,0,VALID,95.9019,VALID,0.0339617,VALID,19.5155,VALID,167,VALID,0.251758,
2003-06-03, 00:37:00,VALID,916.746,VALID,0,VALID,96.0036,VALID,0.0169808,VALID,19.5292,VALID,167,VALID,0.392027,
2003-06-03, 00:38:00,VALID,916.725,VALID,0,VALID,95.6908,VALID,0.0169808,VALID,19.5254,VALID,167,VALID,0.210726,
2003-06-03, 00:39:00,VALID,916.714,VALID,0,VALID,95.6476,VALID,0,VALID,19.483,VALID,156,VALID,0.435811,
2003-06-03, 00:40:00,VALID,916.701,VALID,0,VALID,96.1994,VALID,0.0339617,VALID,19.4959,VALID,146,VALID,0.501267,
2003-06-03, 00:41:00,VALID,916.701,VALID,0,VALID,95.9616,VALID,0.0169808,VALID,19.4994,VALID,133,VALID,0.484821,
2003-06-03, 00:42:00,VALID,916.674,VALID,0,VALID,95.893,VALID,0.0339617,VALID,19.4899,VALID,150,VALID,0.623311,
2003-06-03, 00:43:00,VALID,916.67,VALID,0,VALID,96.2452,VALID,0.0339617,VALID,19.5123,VALID,164,VALID,0.660051,
2003-06-03, 00:44:00,VALID,916.663,VALID,0,VALID,95.7467,VALID,0.0169808,VALID,19.5607,VALID,146,VALID,0.48273,
2003-06-03, 00:45:00,VALID,916.658,VALID,0,VALID,94.5324,VALID,0.0169808,VALID,19.5612,VALID,123,VALID,0.489515,
2003-06-03, 00:46:00,VALID,916.662,VALID,0,VALID,94.5095,VALID,0.0169808,VALID,19.5058,VALID,112,VALID,0.564596,
2003-06-03, 00:47:00,VALID,916.655,VALID,0,VALID,94.3683,VALID,0,VALID,19.4996,VALID,98,VALID,0.409334,
2003-06-03, 00:48:00,VALID,916.635,VALID,0,VALID,94.367,VALID,0.0509425,VALID,19.441,VALID,89,VALID,0.302632,
2003-06-03, 00:49:00,VALID,916.642,VALID,0,VALID,95.0346,VALID,0.0169808,VALID,19.4348,VALID,89,VALID,0.284152,
2003-06-03, 00:50:00,VALID,916.643,VALID,0,VALID,95.219,VALID,0.0169808,VALID,19.4676,VALID,127,VALID,0.328742,
2003-06-03, 00:51:00,VALID,916.639,VALID,0,VALID,94.5858,VALID,0.0169808,VALID,19.474,VALID,156,VALID,0.19308,
2003-06-03, 00:52:00,VALID,916.628,VALID,0,VALID,94.306,VALID,0.0169808,VALID,19.438,VALID,156,VALID,0.136433,
2003-06-03, 00:53:00,VALID,916.623,VALID,0,VALID,94.5044,VALID,0,VALID,19.4256,VALID,156,VALID,0.245593,
2003-06-03, 00:54:00,VALID,916.604,VALID,0,VALID,94.6849,VALID,0,VALID,19.4187,VALID,156,VALID,0.0629112,
2003-06-03, 00:55:00,VALID,916.62,VALID,0,VALID,93.5939,VALID,0,VALID,19.3578,VALID,129,VALID,0.172903,
2003-06-03, 00:56:00,VALID,916.613,VALID,0,VALID,92.7114,VALID,0,VALID,19.2031,VALID,71,VALID,0.369336,
2003-06-03, 00:57:00,VALID,916.593,VALID,0,VALID,94.2195,VALID,-0.0169808,VALID,19.1222,VALID,59,VALID,0.207031,
2003-06-03, 00:58:00,VALID,916.581,VALID,0,VALID,95.2597,VALID,0,VALID,19.0966,VALID,59,VALID,0.0884713,
2003-06-03, 00:59:00,VALID,916.58,VALID,0,VALID,95.2025,VALID,0,VALID,19.0867,VALID,59,VALID,0.457981,
2003-06-03, 01:00:00,VALID,916.572,VALID,0,VALID,95.7747,VALID,0,VALID,19.0609,VALID,59,VALID,0.229384,
2003-06-03, 01:01:00,VALID,916.564,VALID,0,VALID,95.8841,VALID,0,VALID,19.0671,VALID,57,VALID,0.584821,
2003-06-03, 01:02:00,VALID,916.564,VALID,0,VALID,95.9744,VALID,0.0169808,VALID,19.109,VALID,64,VALID,0.340511,
2003-06-03, 01:03:00,VALID,916.567,VALID,0,VALID,95.8739,VALID,0,VALID,19.1549,VALID,88,VALID,0.5625,
2003-06-03, 01:04:00,VALID,916.571,VALID,0,VALID,95.3106,VALID,0,VALID,19.2289,VALID,105,VALID,0.712993,
2003-06-03, 01:05:00,VALID,916.569,VALID,0,VALID,94.7829,VALID,0,VALID,19.3712,VALID,97,VALID,0.835726,
2003-06-03, 01:06:00,VALID,916.551,VALID,0,VALID,93.9245,VALID,0,VALID,19.5354,VALID,120,VALID,0.650195,
2003-06-03, 01:07:00,VALID,916.501,VALID,0,VALID,92.7699,VALID,0.0169808,VALID,19.6712,VALID,148,VALID,0.714343,
2003-06-03, 01:08:00,VALID,916.482,VALID,0,VALID,92.4329,VALID,0.0169808,VALID,19.7457,VALID,109,VALID,0.607475,
2003-06-03, 01:09:00,VALID,916.459,VALID,0,VALID,91.9065,VALID,-0.0169808,VALID,19.8423,VALID,107,VALID,0.72065,
2003-06-03, 01:10:00,VALID,916.425,VALID,0,VALID,91.2745,VALID,0,VALID,19.9583,VALID,106,VALID,0.855574,
2003-06-03, 01:11:00,VALID,916.418,VALID,0,VALID,90.7163,VALID,0,VALID,20.0683,VALID,99,VALID,0.723437,
2003-06-03, 01:12:00,VALID,916.371,VALID,0,VALID,90.0652,VALID,0,VALID,20.1423,VALID,132,VALID,0.524071,
2003-06-03, 01:13:00,VALID,916.345,VALID,0,VALID,86.623,VALID,0,VALID,20.1011,VALID,71,VALID,0.612331,
2003-06-03, 01:14:00,VALID,916.346,VALID,0,VALID,89.863,VALID,-0.0169808,VALID,19.9652,VALID,122,VALID,0.666118,
2003-06-03, 01:15:00,VALID,916.318,VALID,0,VALID,90.6578,VALID,-0.0169808,VALID,19.9004,VALID,115,VALID,0.858141,
2003-06-03, 01:16:00,VALID,916.311,VALID,0,VALID,90.6336,VALID,0,VALID,19.9034,VALID,114,VALID,0.709604,
2003-06-03, 01:17:00,VALID,916.302,VALID,0,VALID,90.4912,VALID,0,VALID,19.9002,VALID,102,VALID,0.86616,
2003-06-03, 01:18:00,VALID,916.3,VALID,0,VALID,90.659,VALID,0,VALID,19.9074,VALID,123,VALID,0.524671,
2003-06-03, 01:19:00,VALID,916.28,VALID,0,VALID,90.5408,VALID,0,VALID,19.9096,VALID,153,VALID,0.617857,
2003-06-03, 01:20:00,VALID,916.269,VALID,0,VALID,90.1008,VALID,-0.0169808,VALID,19.9297,VALID,179,VALID,0.391036,
2003-06-03, 01:21:00,VALID,916.259,VALID,0,VALID,89.5744,VALID,0,VALID,19.8748,VALID,126,VALID,0.48683,
2003-06-03, 01:22:00,VALID,916.248,VALID,0,VALID,90.659,VALID,0,VALID,19.8229,VALID,127,VALID,0.896913,
2003-06-03, 01:23:00,VALID,916.246,VALID,0,VALID,90.8053,VALID,0,VALID,19.8162,VALID,105,VALID,0.758814,
2003-06-03, 01:24:00,VALID,916.234,VALID,0,VALID,90.8422,VALID,0,VALID,19.8396,VALID,114,VALID,0.655222,
2003-06-03, 01:25:00,VALID,916.212,VALID,0,VALID,90.3793,VALID,0,VALID,19.8905,VALID,118,VALID,0.802632,
2003-06-03, 01:26:00,VALID,916.223,VALID,0,VALID,89.9228,VALID,-0.0679233,VALID,19.9469,VALID,105,VALID,1.11992,
2003-06-03, 01:27:00,VALID,916.222,VALID,0,VALID,89.3328,VALID,-0.101885,VALID,20.0147,VALID,104,VALID,0.835732,
2003-06-03, 01:28:00,VALID,916.212,VALID,0,VALID,89.418,VALID,-0.0849042,VALID,20.034,VALID,128,VALID,0.839738,
2003-06-03, 01:29:00,VALID,916.224,VALID,0,VALID,89.0632,VALID,-0.101885,VALID,20.0763,VALID,126,VALID,1.33488,
2003-06-03, 01:30:00,VALID,916.215,VALID,0,VALID,88.8928,VALID,-0.0849042,VALID,20.1145,VALID,118,VALID,0.853516,
2003-06-03, 01:31:00,VALID,916.212,VALID,0,VALID,88.6919,VALID,-0.0679233,VALID,20.1436,VALID,116,VALID,1.10714,
2003-06-03, 01:32:00,VALID,916.203,VALID,0,VALID,88.6715,VALID,-0.101885,VALID,20.1535,VALID,116,VALID,0.849276,
2003-06-03, 01:33:00,VALID,916.169,VALID,0,VALID,88.6741,VALID,-0.101885,VALID,20.1696,VALID,111,VALID,1.55384,
2003-06-03, 01:34:00,VALID,916.145,VALID,0,VALID,87.9353,VALID,-0.0849042,VALID,20.2245,VALID,77,VALID,0.698191,
2003-06-03, 01:35:00,VALID,916.133,VALID,0,VALID,88.0879,VALID,-0.101885,VALID,20.2181,VALID,87,VALID,0.975084,
2003-06-03, 01:36:00,VALID,916.136,VALID,0,VALID,88.0662,VALID,-0.101885,VALID,20.2216,VALID,81,VALID,0.992188,
2003-06-03, 01:37:00,VALID,916.131,VALID,0,VALID,88.5126,VALID,-0.0849042,VALID,20.1992,VALID,107,VALID,1.127,
2003-06-03, 01:38:00,VALID,916.137,VALID,0,VALID,88.4655,VALID,-0.101885,VALID,20.1925,VALID,131,VALID,1.43961,
2003-06-03, 01:39:00,VALID,916.14,VALID,0,VALID,88.1171,VALID,-0.0849042,VALID,20.1952,VALID,131,VALID,0.760346,
2003-06-03, 01:40:00,VALID,916.147,VALID,0,VALID,88.0446,VALID,-0.101885,VALID,20.2019,VALID,123,VALID,1.38302,
2003-06-03, 01:41:00,VALID,916.14,VALID,0,VALID,87.9416,VALID,-0.0339617,VALID,20.2071,VALID,103,VALID,1.49353,
2003-06-03, 01:42:00,VALID,916.13,VALID,0,VALID,87.728,VALID,0,VALID,20.2461,VALID,76,VALID,0.899704,
2003-06-03, 01:43:00,VALID,916.132,VALID,0,VALID,87.8933,VALID,-0.0169808,VALID,20.2171,VALID,72,VALID,0.863176,
2003-06-03, 01:44:00,VALID,916.133,VALID,0,VALID,88.2188,VALID,0,VALID,20.1848,VALID,123,VALID,0.838405,
2003-06-03, 01:45:00,VALID,916.112,VALID,0,VALID,88.4032,VALID,0,VALID,20.1716,VALID,124,VALID,0.867188,
2003-06-03, 01:46:00,VALID,916.123,VALID,0,VALID,87.9404,VALID,0,VALID,20.1517,VALID,113,VALID,1.42588,
2003-06-03, 01:47:00,VALID,916.117,VALID,0,VALID,87.7865,VALID,0,VALID,20.1805,VALID,138,VALID,1.51768,
2003-06-03, 01:48:00,VALID,916.098,VALID,0,VALID,87.6708,VALID,0,VALID,20.1999,VALID,135,VALID,1.43956,
2003-06-03, 01:49:00,VALID,916.091,VALID,0,VALID,87.5067,VALID,0,VALID,20.1875,VALID,125,VALID,1.15446,
2003-06-03, 01:50:00,VALID,916.077,VALID,0,VALID,87.4826,VALID,0,VALID,20.1969,VALID,133,VALID,1.16098,
2003-06-03, 01:51:00,VALID,916.059,VALID,0,VALID,87.4838,VALID,0,VALID,20.2002,VALID,119,VALID,0.937054,
2003-06-03, 01:52:00,VALID,916.029,VALID,0,VALID,87.2232,VALID,0,VALID,20.2198,VALID,96,VALID,1.46837,
2003-06-03, 01:53:00,VALID,916.011,VALID,0,VALID,87.2346,VALID,0.0169808,VALID,20.23,VALID,108,VALID,1.52183,
2003-06-03, 01:54:00,VALID,915.978,VALID,0,VALID,87.1227,VALID,0,VALID,20.2421,VALID,137,VALID,1.42537,
2003-06-03, 01:55:00,VALID,915.977,VALID,0,VALID,86.8544,VALID,0,VALID,20.2744,VALID,142,VALID,1.2866,
2003-06-03, 01:56:00,VALID,915.959,VALID,0,VALID,86.4844,VALID,0,VALID,20.297,VALID,122,VALID,1.14941,
2003-06-03, 01:57:00,VALID,915.945,VALID,0,VALID,86.4119,VALID,0,VALID,20.336,VALID,117,VALID,0.837377,
2003-06-03, 01:58:00,VALID,915.942,VALID,0,VALID,86.2898,VALID,0,VALID,20.3422,VALID,123,VALID,1.49134,
2003-06-03, 01:59:00,VALID,915.931,VALID,0,VALID,86.0775,VALID,0,VALID,20.375,VALID,136,VALID,0.823057,
2003-06-03, 02:00:00,VALID,915.92,VALID,0,VALID,85.9083,VALID,0,VALID,20.3934,VALID,104,VALID,1.2003,
2003-06-03, 02:01:00,VALID,915.919,VALID,0,VALID,85.9058,VALID,0,VALID,20.4003,VALID,108,VALID,1.03638,
2003-06-03, 02:02:00,VALID,915.907,VALID,0,VALID,85.9516,VALID,0,VALID,20.4006,VALID,109,VALID,1.18178,
2003-06-03, 02:03:00,VALID,915.907,VALID,0,VALID,85.9211,VALID,-0.0169808,VALID,20.4165,VALID,81,VALID,0.978041,
2003-06-03, 02:04:00,VALID,915.893,VALID,0,VALID,85.7405,VALID,0,VALID,20.4165,VALID,83,VALID,0.876645,
2003-06-03, 02:05:00,VALID,915.894,VALID,0,VALID,85.799,VALID,0,VALID,20.4294,VALID,111,VALID,1.40224,
2003-06-03, 02:06:00,VALID,915.891,VALID,0,VALID,85.6604,VALID,0,VALID,20.4719,VALID,127,VALID,0.983203,
2003-06-03, 02:07:00,VALID,915.891,VALID,0,VALID,85.6082,VALID,0,VALID,20.4716,VALID,107,VALID,0.703926,
2003-06-03, 02:08:00,VALID,915.887,VALID,0,VALID,85.6667,VALID,0,VALID,20.4353,VALID,117,VALID,0.577492,
2003-06-03, 02:09:00,VALID,915.88,VALID,0,VALID,85.6286,VALID,0,VALID,20.4297,VALID,100,VALID,1.00296,
2003-06-03, 02:10:00,VALID,915.88,VALID,0,VALID,85.7786,VALID,0.0169808,VALID,20.3971,VALID,93,VALID,0.886191,
2003-06-03, 02:11:00,VALID,915.875,VALID,0,VALID,85.7227,VALID,0,VALID,20.3872,VALID,125,VALID,0.736161,
2003-06-03, 02:12:00,VALID,915.889,VALID,0,VALID,85.6159,VALID,0,VALID,20.3969,VALID,130,VALID,0.71516,
2003-06-03, 02:13:00,VALID,915.881,VALID,0,VALID,85.5942,VALID,0,VALID,20.4038,VALID,133,VALID,0.900127,
2003-06-03, 02:14:00,VALID,915.877,VALID,0,VALID,85.5841,VALID,-0.0169808,VALID,20.3971,VALID,107,VALID,0.742188,
2003-06-03, 02:15:00,VALID,915.886,VALID,0,VALID,85.5294,VALID,0,VALID,20.4036,VALID,116,VALID,0.68565,
2003-06-03, 02:16:00,VALID,915.871,VALID,0,VALID,85.5536,VALID,-0.0169808,VALID,20.4065,VALID,123,VALID,0.671303,
2003-06-03, 02:17:00,VALID,915.854,VALID,0,VALID,85.6222,VALID,0,VALID,20.3944,VALID,140,VALID,0.939556,
2003-06-03, 02:18:00,VALID,915.836,VALID,0,VALID,85.6464,VALID,0,VALID,20.3745,VALID,143,VALID,1.33306,
2003-06-03, 02:19:00,VALID,915.835,VALID,0,VALID,85.7252,VALID,0,VALID,20.3393,VALID,134,VALID,0.753571,
2003-06-03, 02:20:00,VALID,915.833,VALID,0,VALID,85.9859,VALID,0.0169808,VALID,20.2739,VALID,150,VALID,0.51028,
2003-06-03, 02:21:00,VALID,915.811,VALID,0,VALID,86.4729,VALID,0,VALID,20.2036,VALID,150,VALID,0.652009,
2003-06-03, 02:22:00,VALID,915.788,VALID,0,VALID,86.4945,VALID,0,VALID,20.1023,VALID,103,VALID,0.712652,
2003-06-03, 02:23:00,VALID,915.794,VALID,0,VALID,87.1939,VALID,0.0169808,VALID,20.0546,VALID,123,VALID,0.722957,
2003-06-03, 02:24:00,VALID,915.782,VALID,0,VALID,87.0986,VALID,0,VALID,20.0713,VALID,115,VALID,0.852179,
2003-06-03, 02:25:00,VALID,915.793,VALID,0,VALID,86.7743,VALID,0,VALID,20.0737,VALID,88,VALID,0.612459,
2003-06-03, 02:26:00,VALID,915.794,VALID,0,VALID,87.1316,VALID,-0.0679233,VALID,20.0718,VALID,100,VALID,0.770312,
2003-06-03, 02:27:00,VALID,915.797,VALID,0,VALID,87.0502,VALID,-0.101885,VALID,20.082,VALID,142,VALID,0.561266,
2003-06-03, 02:28:00,VALID,915.794,VALID,0,VALID,86.904,VALID,-0.101885,VALID,20.0884,VALID,137,VALID,0.650971,
2003-06-03, 02:29:00,VALID,915.799,VALID,0,VALID,86.7896,VALID,-0.101885,VALID,20.0755,VALID,99,VALID,0.491132,
2003-06-03, 02:30:00,VALID,915.807,VALID,0,VALID,87.3961,VALID,-0.0849042,VALID,20.0176,VALID,103,VALID,0.730252,
2003-06-03, 02:31:00,VALID,915.784,VALID,0,VALID,87.433,VALID,-0.0849042,VALID,19.9916,VALID,136,VALID,0.951116,
2003-06-03, 02:32:00,VALID,915.757,VALID,0,VALID,87.0668,VALID,-0.101885,VALID,20.0114,VALID,155,VALID,1.17683,
2003-06-03, 02:33:00,VALID,915.73,VALID,0,VALID,86.8798,VALID,-0.101885,VALID,20.0204,VALID,136,VALID,0.846917,
2003-06-03, 02:34:00,VALID,915.728,VALID,0,VALID,86.9727,VALID,-0.101885,VALID,20.0047,VALID,100,VALID,0.785156,
2003-06-03, 02:35:00,VALID,915.724,VALID,0,VALID,87.3936,VALID,-0.101885,VALID,19.963,VALID,119,VALID,0.916596,
2003-06-03, 02:36:00,VALID,915.73,VALID,0,VALID,87.4025,VALID,-0.101885,VALID,19.9498,VALID,119,VALID,0.601172,
2003-06-03, 02:37:00,VALID,915.733,VALID,0,VALID,87.3809,VALID,-0.101885,VALID,19.9367,VALID,136,VALID,0.814704,
2003-06-03, 02:38:00,VALID,915.731,VALID,0,VALID,87.1443,VALID,-0.0679233,VALID,19.9399,VALID,96,VALID,0.649071,
2003-06-03, 02:39:00,VALID,915.751,VALID,0,VALID,87.1494,VALID,-0.118866,VALID,19.9471,VALID,124,VALID,0.755279,
2003-06-03, 02:40:00,VALID,915.761,VALID,0,VALID,86.8252,VALID,-0.101885,VALID,19.966,VALID,107,VALID,1.03885,
2003-06-03, 02:41:00,VALID,915.753,VALID,0,VALID,86.5797,VALID,-0.0339617,VALID,20.0457,VALID,79,VALID,0.63683,
2003-06-03, 02:42:00,VALID,915.749,VALID,0,VALID,86.3928,VALID,-0.0169808,VALID,20.0968,VALID,102,VALID,0.717272,
2003-06-03, 02:43:00,VALID,915.743,VALID,0,VALID,86.2885,VALID,-0.0339617,VALID,20.1192,VALID,91,VALID,0.54413,
2003-06-03, 02:44:00,VALID,915.725,VALID,0,VALID,86.244,VALID,-0.0339617,VALID,20.1259,VALID,125,VALID,0.826686,
2003-06-03, 02:45:00,VALID,915.727,VALID,0,VALID,85.9795,VALID,0,VALID,20.1679,VALID,106,VALID,1.53721,
2003-06-03, 02:46:00,VALID,915.71,VALID,0,VALID,85.2331,VALID,-0.0339617,VALID,20.2774,VALID,143,VALID,1.09585,
2003-06-03, 02:47:00,VALID,915.715,VALID,0,VALID,84.961,VALID,-0.0339617,VALID,20.3455,VALID,124,VALID,0.803248,
2003-06-03, 02:48:00,VALID,915.718,VALID,0,VALID,84.9686,VALID,0,VALID,20.3422,VALID,139,VALID,0.788446,
2003-06-03, 02:49:00,VALID,915.719,VALID,0,VALID,84.8097,VALID,-0.0169808,VALID,20.3355,VALID,94,VALID,1.23973,
2003-06-03, 02:50:00,VALID,915.708,VALID,0,VALID,84.4028,VALID,0,VALID,20.3936,VALID,121,VALID,1.02056,
2003-06-03, 02:51:00,VALID,915.709,VALID,0,VALID,84.1662,VALID,-0.0339617,VALID,20.4455,VALID,124,VALID,0.768304,
2003-06-03, 02:52:00,VALID,915.694,VALID,0,VALID,83.8814,VALID,-0.0339617,VALID,20.4816,VALID,143,VALID,1.20046,
2003-06-03, 02:53:00,VALID,915.689,VALID,0,VALID,83.6347,VALID,-0.0339617,VALID,20.5131,VALID,136,VALID,0.948718,
2003-06-03, 02:54:00,VALID,915.682,VALID,0,VALID,83.7085,VALID,-0.0169808,VALID,20.5193,VALID,140,VALID,0.707854,
2003-06-03, 02:55:00,VALID,915.671,VALID,0,VALID,84.0645,VALID,-0.0339617,VALID,20.4781,VALID,141,VALID,0.685033,
2003-06-03, 02:56:00,VALID,915.678,VALID,0,VALID,84.329,VALID,0.0679233,VALID,20.4155,VALID,104,VALID,0.517383,
2003-06-03, 02:57:00,VALID,915.669,VALID,0,VALID,84.5299,VALID,0.0849042,VALID,20.3735,VALID,124,VALID,0.238487,
2003-06-03, 02:58:00,VALID,915.681,VALID,0,VALID,84.7524,VALID,0.0849042,VALID,20.3114,VALID,155,VALID,0.485642,
2003-06-03, 02:59:00,VALID,915.68,VALID,0,VALID,84.8567,VALID,0.0849042,VALID,20.2793,VALID,171,VALID,0.789907,
2003-06-03, 03:00:00,VALID,915.677,VALID,0,VALID,84.6583,VALID,0.101885,VALID,20.2858,VALID,170,VALID,0.868273,
2003-06-03, 03:01:00,VALID,915.682,VALID,0,VALID,84.5604,VALID,0.0849042,VALID,20.2788,VALID,133,VALID,0.260714,
2003-06-03, 03:02:00,VALID,915.688,VALID,0,VALID,84.905,VALID,0.101885,VALID,20.2374,VALID,153,VALID,0.22923,
2003-06-03, 03:03:00,VALID,915.687,VALID,0,VALID,85.0525,VALID,0.0849042,VALID,20.2053,VALID,156,VALID,0.143159,
2003-06-03, 03:04:00,VALID,915.696,VALID,0,VALID,85.1797,VALID,0.0849042,VALID,20.1895,VALID,170,VALID,0.511102,
2003-06-03, 03:05:00,VALID,915.691,VALID,0,VALID,85.1428,VALID,0.0849042,VALID,20.1664,VALID,170,VALID,0.346284,
2003-06-03, 03:06:00,VALID,915.71,VALID,0,VALID,85.214,VALID,0.0849042,VALID,20.14,VALID,213,VALID,0.154297,
2003-06-03, 03:07:00,VALID,915.725,VALID,0,VALID,85.303,VALID,0.0679233,VALID,20.105,VALID,204,VALID,0.16226,
2003-06-03, 03:08:00,VALID,915.719,VALID,0,VALID,85.6489,VALID,0.0339617,VALID,20.0563,VALID,174,VALID,0.397171,
2003-06-03, 03:09:00,VALID,915.727,VALID,0,VALID,85.6591,VALID,0.0849042,VALID,20.0375,VALID,171,VALID,0.20228,
2003-06-03, 03:10:00,VALID,915.715,VALID,0,VALID,85.6807,VALID,0.0849042,VALID,20.0273,VALID,142,VALID,0.771959,
2003-06-03, 03:11:00,VALID,915.722,VALID,0,VALID,85.4849,VALID,0,VALID,20.0447,VALID,152,VALID,0.154018,
2003-06-03, 03:12:00,VALID,915.695,VALID,0,VALID,85.2382,VALID,-0.0169808,VALID,20.0511,VALID,152,VALID,0.000422297,
2003-06-03, 03:13:00,VALID,915.675,VALID,0,VALID,85.3603,VALID,-0.0509425,VALID,20.0358,VALID,147,VALID,0.308066,
2003-06-03, 03:14:00,VALID,915.693,VALID,0,VALID,85.6019,VALID,-0.0339617,VALID,19.9895,VALID,147,VALID,0.306538,
2003-06-03, 03:15:00,VALID,915.669,VALID,0,VALID,85.6171,VALID,-0.0339617,VALID,19.9903,VALID,164,VALID,0.445518,
2003-06-03, 03:16:00,VALID,915.66,VALID,0,VALID,85.6642,VALID,0,VALID,19.9806,VALID,161,VALID,0.31593,
2003-06-03, 03:17:00,VALID,915.667,VALID,0,VALID,85.1797,VALID,-0.0169808,VALID,19.9481,VALID,123,VALID,0.259457,
2003-06-03, 03:18:00,VALID,915.657,VALID,0,VALID,85.6426,VALID,0,VALID,19.8932,VALID,126,VALID,0.159951,
2003-06-03, 03:19:00,VALID,915.658,VALID,0,VALID,86.0291,VALID,-0.0169808,VALID,19.8517,VALID,126,VALID,0,
2003-06-03, 03:20:00,VALID,915.646,VALID,0,VALID,85.9299,VALID,0,VALID,19.7608,VALID,45,VALID,0.248355,
2003-06-03, 03:21:00,VALID,915.642,VALID,0,VALID,86.8226,VALID,-0.0339617,VALID,19.6101,VALID,33,VALID,0.0734375,
2003-06-03, 03:22:00,VALID,915.643,VALID,0,VALID,87.6504,VALID,-0.0169808,VALID,19.5321,VALID,33,VALID,0,
2003-06-03, 03:23:00,VALID,915.637,VALID,0,VALID,87.7369,VALID,-0.0169808,VALID,19.5023,VALID,33,VALID,0,
2003-06-03, 03:24:00,VALID,915.632,VALID,0,VALID,87.8793,VALID,-0.0509425,VALID,19.4869,VALID,33,VALID,0.0540707,
2003-06-03, 03:25:00,VALID,915.617,VALID,0,VALID,87.7725,VALID,-0.0339617,VALID,19.4643,VALID,33,VALID,0,
2003-06-03, 03:26:00,VALID,915.626,VALID,0,VALID,88.182,VALID,-0.0169808,VALID,19.4321,VALID,33,VALID,0.0664063,
2003-06-03, 03:27:00,VALID,915.625,VALID,0,VALID,88.3384,VALID,-0.0339617,VALID,19.3643,VALID,33,VALID,0.106908,
2003-06-03, 03:28:00,VALID,915.623,VALID,0,VALID,88.833,VALID,-0.0679233,VALID,19.3,VALID,33,VALID,0.076647,
2003-06-03, 03:29:00,VALID,915.621,VALID,0,VALID,88.613,VALID,-0.0339617,VALID,19.2317,VALID,33,VALID,0.183066,
2003-06-03, 03:30:00,VALID,915.617,VALID,0,VALID,89.4955,VALID,-0.0169808,VALID,19.1803,VALID,106,VALID,0.313585,
2003-06-03, 03:31:00,VALID,915.608,VALID,0,VALID,89.741,VALID,-0.0339617,VALID,19.1515,VALID,183,VALID,0.662054,
2003-06-03, 03:32:00,VALID,915.606,VALID,0,VALID,89.6583,VALID,-0.0339617,VALID,19.1639,VALID,179,VALID,0.595465,
2003-06-03, 03:33:00,VALID,915.623,VALID,0,VALID,89.17,VALID,-0.0339617,VALID,19.2356,VALID,146,VALID,1.29434,
2003-06-03, 03:34:00,VALID,915.607,VALID,0,VALID,88.1044,VALID,-0.0509425,VALID,19.365,VALID,134,VALID,0.597039,
2003-06-03, 03:35:00,VALID,915.608,VALID,0,VALID,87.8374,VALID,-0.0339617,VALID,19.4129,VALID,133,VALID,0.440456,
2003-06-03, 03:36:00,VALID,915.598,VALID,0,VALID,87.6949,VALID,-0.0509425,VALID,19.4164,VALID,148,VALID,0.394336,